Location: Unspecified
(0.0000°N, 0.0000°E)
Time: 19:36:10
(UTC+02:00)

Iridium 84 - Visible Passes

Search period start: 19 April 2015 00:00
Search period end: 29 April 2015 00:00
Orbit: 776 x 779 km, 86.4° (Epoch: 19 April)

Date Brightness Start Highest point End Pass type
(mag) Time Alt. Az. Time Alt. Az. Time Alt. Az.
19 Apr 5.7 21:33:50 10° N 21:39:00 69° W 21:44:11 10° S visible
20 Apr 5.6 21:00:29 10° NNE 21:05:31 53° E 21:10:36 10° SSE visible
21 Apr 6.6 20:27:58 10° NE 20:31:59 24° E 20:36:12 10° SE visible
21 Apr 8.0 22:08:54 10° NW 22:12:37 19° W 22:16:07 10° SW visible
22 Apr 6.7 21:34:09 10° NNW 21:39:03 42° W 21:43:57 10° SSW visible
23 Apr 5.5 21:00:22 10° N 21:05:34 86° E 21:10:49 10° S visible
24 Apr 6.0 20:27:18 10° NNE 20:32:04 38° E 20:36:56 10° SSE visible
24 Apr 8.6 22:10:57 10° WNW 22:12:46 11° W 22:14:08 10° WSW visible
25 Apr 7.7 21:34:48 10° NW 21:39:09 26° W 21:43:22 10° SW visible
26 Apr 6.2 21:00:30 10° N 21:05:36 58° W 21:10:44 10° SSW visible
27 Apr 5.5 20:27:00 10° N 20:32:08 63° E 20:37:18 10° S visible
28 Apr 8.4 21:35:58 10° NW 21:39:16 16° W 21:42:15 10° SW visible
